TimeCDT,TemperatureF,Dew PointF,Humidity,Sea Level PressureIn,VisibilityMPH,Wind Direction,Wind SpeedMPH,Gust SpeedMPH,PrecipitationIn,Events,Conditions,WindDirDegrees,DateUTC
12:54 AM,64.0,61.0,90,29.87,9.0,East,4.6,-,N/A,,Clear,90,2013-09-26 05:54:00
1:54 AM,63.0,60.1,90,29.89,6.0,East,3.5,-,N/A,,Clear,100,2013-09-26 06:54:00
2:54 AM,64.0,61.0,90,29.89,9.0,ESE,5.8,-,N/A,,Clear,110,2013-09-26 07:54:00
3:54 AM,61.0,59.0,93,29.90,5.0,ESE,3.5,-,N/A,,Clear,110,2013-09-26 08:54:00
4:21 AM,59.0,57.9,96,29.92,1.2,South,4.6,-,N/A,,Partly Cloudy,190,2013-09-26 09:21:00
4:23 AM,57.9,57.0,97,29.92,0.8,SSW,4.6,-,N/A,,Mist,200,2013-09-26 09:23:00
4:33 AM,57.9,55.9,93,29.92,0.2,South,5.8,-,N/A,Fog,Fog,170,2013-09-26 09:33:00
4:40 AM,59.0,57.9,96,29.92,1.0,South,4.6,-,N/A,,Mist,180,2013-09-26 09:40:00
4:43 AM,59.0,57.9,96,29.92,2.0,South,4.6,-,N/A,,Partly Cloudy,170,2013-09-26 09:43:00
4:54 AM,61.0,59.0,93,29.91,4.0,SSE,5.8,-,N/A,,Clear,160,2013-09-26 09:54:00
5:54 AM,61.0,60.1,97,29.93,3.0,SE,4.6,-,N/A,,Clear,140,2013-09-26 10:54:00
6:04 AM,60.1,59.0,96,29.94,1.8,SE,4.6,-,N/A,,Clear,130,2013-09-26 11:04:00
6:37 AM,61.0,59.0,93,29.95,0.8,ESE,5.8,-,N/A,,Clear,120,2013-09-26 11:37:00
6:45 AM,62.1,61.0,96,29.95,2.0,SE,6.9,-,N/A,,Clear,130,2013-09-26 11:45:00
6:54 AM,62.1,61.0,96,29.94,4.0,ESE,5.8,-,N/A,,Clear,120,2013-09-26 11:54:00
7:15 AM,60.1,59.0,96,29.96,1.8,ESE,5.8,-,N/A,,Clear,110,2013-09-26 12:15:00
7:30 AM,62.1,60.1,93,29.97,3.0,ESE,5.8,-,N/A,,Clear,120,2013-09-26 12:30:00
7:43 AM,62.1,60.1,93,29.97,2.5,ESE,5.8,-,N/A,,Clear,110,2013-09-26 12:43:00
7:54 AM,62.1,61.0,96,29.96,2.5,ESE,6.9,-,N/A,,Clear,110,2013-09-26 12:54:00
8:03 AM,64.0,62.1,93,29.98,4.0,ESE,5.8,-,N/A,,Clear,110,2013-09-26 13:03:00
8:54 AM,66.9,64.0,90,29.97,9.0,SE,6.9,-,N/A,,Clear,140,2013-09-26 13:54:00
9:54 AM,72.0,64.9,78,29.98,10.0,SSE,10.4,-,N/A,,Clear,150,2013-09-26 14:54:00
10:54 AM,77.0,64.0,64,29.98,10.0,SSE,12.7,-,N/A,,Clear,150,2013-09-26 15:54:00
11:54 AM,80.1,64.0,58,29.97,10.0,SSE,12.7,-,N/A,,Clear,150,2013-09-26 16:54:00
12:54 PM,81.0,64.0,56,29.96,10.0,South,10.4,-,N/A,,Partly Cloudy,180,2013-09-26 17:54:00
1:54 PM,82.9,64.0,53,29.95,10.0,SSW,11.5,-,N/A,,Scattered Clouds,200,2013-09-26 18:54:00
2:54 PM,82.9,63.0,51,29.93,10.0,SE,11.5,-,N/A,,Clear,140,2013-09-26 19:54:00
3:54 PM,82.9,62.1,49,29.93,10.0,South,11.5,-,N/A,,Clear,190,2013-09-26 20:54:00
4:54 PM,82.0,63.0,52,29.93,10.0,SSE,9.2,-,N/A,,Clear,160,2013-09-26 21:54:00
5:54 PM,81.0,63.0,54,29.93,10.0,SSE,10.4,-,N/A,,Clear,160,2013-09-26 22:54:00
6:54 PM,75.9,63.0,64,29.93,10.0,SSE,6.9,-,N/A,,Clear,150,2013-09-26 23:54:00
7:54 PM,73.9,63.0,68,29.94,10.0,SE,5.8,-,N/A,,Clear,140,2013-09-27 00:54:00
8:54 PM,72.0,62.1,71,29.95,10.0,ESE,6.9,-,N/A,,Clear,120,2013-09-27 01:54:00
9:54 PM,70.0,62.1,76,29.96,10.0,ESE,5.8,-,N/A,,Clear,120,2013-09-27 02:54:00
10:54 PM,68.0,62.1,81,29.97,10.0,SE,6.9,-,N/A,,Clear,140,2013-09-27 03:54:00
11:54 PM,66.9,61.0,81,29.98,10.0,SE,5.8,-,N/A,,Clear,140,2013-09-27 04:54:00